User: anonymous   Login
Location: Campillo
(40.8621°N, 4.2488°W)
Time: 08:39:09
(UTC+00:00)
Language:

Cosmos 2297 - Orbit

View from above orbital plane
View from above orbital plane
View from above satellite
View from above satellite

Ground track
Ground track

The orbit data is extracted from the following two-line orbital elements,

1 23404U 94077A   21216.80043322 -.00000162  00000-0 -60934-4 0  9991
2 23404  71.0167  12.7495 0015553   6.0149 354.1156 14.13556206377357
Epoch (UTC): 04 August 2021 19:12:37
Eccentricity: 0.0015553
inclination: 71.0167°
perigee height: 836 km
apogee height: 858 km
right ascension of ascending node: 12.7495°
argument of perigee: 6.0149°
revolutions per day: 14.13556206
mean anomaly at epoch: 354.1156°
orbit number at epoch: 37735

The dashed part of the orbit path shows where the satellite is in the earth's shadow,  

DLR